www.pogodaiklimat.ru

Погода и климат >> Архив погоды >> Австрия >> Вольфсегг-ам-Хаусрукк


ПОГОДА в Вольфсегг-ам-Хаусрукке

  • Прогноз погоды в Вольфсегг-ам-Хаусрукке
  • Монитор погоды в Вольфсегг-ам-Хаусрукке

АРХИВ ПОГОДЫ в Вольфсегг-ам-Хаусрукке

Время (UTC), дата Ветер
(напр.,м/с)
 
Видим.   Явления Облачность Т
(С)
Тd
(С)
f
(%)
Тe
(С)
Тes
(С)
Комфортность P
(гПа)
Po
(гПа)
Тmin
(С)
Tmax
(С)
R
(мм)
R24
(мм)
S
(см)
22 8.06 В 1 н/о н/о +16.5 +5.2 47 +17 +17 1024.5 953.4
23 8.06 В 2 н/о н/о +16.5 +4.3 44 +17 +17 1024.4 953.3
00 9.06 В 2 н/о н/о +15.8 +7.0 56 +16 +16 1024.2 953.0
01 9.06 СВ 2 н/о н/о +15.6 +7.0 57 +16 +16 1024.4 953.1
02 9.06 В 3 н/о н/о +15.6 +6.2 54 +15 +15 1023.8 952.6
03 9.06 СВ 3 н/о н/о +14.6 +7.5 62 +14 +14 1023.9 952.4
04 9.06 В 4 н/о н/о +14.7 +7.5 62 +14 +14 1023.6 952.2
05 9.06 В 3 н/о н/о +15.2 +8.7 65 +15 +15 1023.2 952.0
06 9.06 В 3 н/о н/о +16.2 +8.6 61 +16 +16 1023.1 952.1 +14.1 +17.6
07 9.06 В 4 н/о н/о +16.8 +9.3 61 +16 +16 1022.4 951.6
08 9.06 В 5 н/о н/о +17.7 +10.9 64 +17 +17 1021.7 951.2
09 9.06 В 5 н/о н/о +19.4 +10.5 56 +20 +20 1021.3 951.2
10 9.06 В 5 н/о н/о +20.6 +10.7 53 +22 +22 комфорт 1020.8 951.0
11 9.06 В 3 н/о н/о +21.7 +11.7 53 +24 +24 комфорт 1020.2 950.7
12 9.06 В 5 н/о н/о +22.4 +11.7 51 +25 +25 комфорт 1019.2 950.0
13 9.06 В 5 н/о н/о +23.2 +11.8 49 +26 +26 жарко 1018.0 949.0
14 9.06 В 5 н/о н/о +23.5 +12.4 50 +25 +25 комфорт 1017.8 948.9
15 9.06 В 5 н/о н/о +23.5 +11.9 48 +25 +25 комфорт 1017.0 948.2
16 9.06 В 4 н/о н/о +22.9 +12.6 52 +26 +26 жарко 1016.7 947.8
17 9.06 В 4 н/о н/о +22.1 +12.2 53 +24 +24 комфорт 1016.4 947.3
18 9.06 В 4 н/о н/о +21.7 +12.0 54 +24 +24 комфорт 1016.3 947.1 +15.9 +23.8
19 9.06 В 4 н/о н/о +21.4 +12.4 56 +24 +24 комфорт 1016.4 947.1
20 9.06 В 5 н/о н/о +20.6 +12.5 60 +23 +23 комфорт 1016.4 947.0
21 9.06 В 4 н/о н/о +20.2 +12.7 62 +22 +22 комфорт 1016.4 946.9
22 9.06 В 3 н/о н/о +19.4 +12.9 66 +21 +21 комфорт 1016.6 946.9
23 9.06 В 1 н/о н/о +19.3 +12.9 66 +22 +22 комфорт 1016.6 946.9
00 10.06 З 1 н/о н/о +17.3 +13.1 76 +18 +18 1016.9 946.7
01 10.06 В 2 н/о н/о +16.7 +12.5 76 +17 +17 1015.9 945.6
02 10.06 СЗ 1 н/о н/о +16.6 +12.0 74 +17 +17 1015.1 944.8
03 10.06 В 1 н/о н/о +18.3 +11.3 64 +20 +20 1014.5 944.6
04 10.06 СЗ 1 н/о н/о +18.1 +11.7 66 +19 +19 1014.4 944.5
05 10.06 В 2 н/о н/о +17.2 +13.4 78 +18 +18 1013.6 943.6 0.0
06 10.06 штиль 0 н/о н/о +18.9 +13.5 71 +20 +20 1014.0 944.4 +15.8 +21.9 0.0
07 10.06 В 2 н/о н/о +19.4 +14.8 75 +22 +22 комфорт 1014.0 944.5
08 10.06 ЮЗ 1 н/о н/о +19.9 +15.6 76 +23 +23 комфорт 1014.6 945.2
09 10.06 ЮВ 2 н/о н/о +21.7 +16.2 71 +25 +25 комфорт 1013.3 944.4
10 10.06 ЮВ 1 н/о н/о +23.5 +17.1 67 +27 +27 душно 1012.6 944.2
11 10.06 В 2 н/о н/о +23.9 +15.7 60 +27 +27 жарко 1012.1 943.8
12 10.06 В 2 н/о н/о +24.4 +16.3 61 +28 +28 душно 1011.3 943.2
13 10.06 В 4 н/о н/о +25.0 +16.3 58 +28 +28 жарко 1009.7 941.8
14 10.06 В 6 н/о н/о +24.3 +16.6 62 +28 +28 душно 1008.7 940.7
15 10.06 В 4 н/о н/о +25.2 +14.8 52 +28 +28 жарко 1007.8 940.0
16 10.06 В 4 н/о н/о +25.8 +14.1 48 +28 +28 жарко 1006.7 939.1
17 10.06 В 3 н/о н/о +25.5 +16.1 56 +29 +29 душно 1006.8 939.2 0.0
18 10.06 В 4 н/о н/о +24.8 +16.3 59 +28 +28 жарко 1006.7 939.0 +18.5 +26.0 0.0
19 10.06 СЗ 3 н/о н/о +22.1 +15.7 67 +26 +26 душно 1008.2 939.7
20 10.06 СЗ 3 н/о н/о +21.0 +13.0 60 +24 +24 комфорт 1008.9 940.1
21 10.06 З 1 н/о н/о +18.7 +13.4 71 +21 +21 комфорт 1009.3 939.9
22 10.06 штиль 0 н/о н/о +19.0 +12.8 67 +20 +20 1009.3 940.0
23 10.06 СВ 2 н/о н/о +20.2 +13.5 65 +23 +23 комфорт 1008.5 939.5
00 11.06 В 2 н/о н/о +19.1 +14.0 72 +21 +21 комфорт 1008.0 938.8
01 11.06 В 2 н/о н/о +18.6 +13.7 73 +20 +20 1007.9 938.6
02 11.06 З 1 н/о н/о +17.2 +13.2 77 +18 +18 1008.2 938.6
03 11.06 СВ 2 н/о н/о +18.0 +13.7 76 +19 +19 1007.9 938.5
04 11.06 З 2 н/о н/о +15.7 +14.1 90 +16 +16 1009.2 939.2
05 11.06 З 4 н/о н/о +15.3 +14.0 92 +14 +14 1010.6 940.4
06 11.06 З 4 н/о н/о +15.5 +13.1 86 +15 +15 1011.7 941.4 +15.2 +24.9
07 11.06 З 3 н/о н/о +15.9 +13.0 83 +15 +15 1011.7 941.5
08 11.06 З 1 н/о н/о +17.0 +13.3 79 +18 +18 1011.2 941.3
09 11.06 В 3 н/о н/о +17.0 +13.1 78 +17 +17 1010.3 940.5
10 11.06 В 3 н/о н/о +17.3 +13.9 80 +17 +17 1009.8 940.1
11 11.06 В 4 н/о н/о +17.9 +14.6 81 +18 +18 1009.0 939.5
12 11.06 В 4 н/о н/о +19.0 +15.4 80 +20 +20 1008.1 938.9
13 11.06 В 5 н/о н/о +21.6 +16.3 72 +25 +25 комфорт 1006.6 938.2
14 11.06 В 3 н/о н/о +21.7 +17.0 75 +26 +26 душно 1006.6 938.2
15 11.06 В 5 н/о н/о +22.7 +17.8 74 +28 +28 душно 1005.8 937.7
16 11.06 В 4 н/о н/о +25.9 +18.5 64 +31 +31 очень
душно
1004.6 937.3
17 11.06 ЮВ 7 н/о н/о +26.7 +13.5 44 +29 +29 жарко 1004.6 937.3
18 11.06 ЮВ 5 н/о н/о +26.0 +12.6 43 +28 +28 жарко 1005.1 937.6 +15.5 +26.7
19 11.06 ЮВ 6 н/о н/о +25.7 +9.6 36 +26 +26 жарко 1006.4 938.7
20 11.06 Ю 3 н/о н/о +24.6 +7.5 34 +25 +25 комфорт 1007.0 939.0
21 11.06 ЮВ 3 н/о н/о +24.3 +7.1 33 +24 +24 комфорт 1007.3 939.2
22 11.06 Ю 1 н/о н/о +24.3 +6.5 32 +24 +24 комфорт 1006.6 938.5
23 11.06 СЗ 1 н/о н/о +22.6 +7.5 38 +24 +24 комфорт 1006.6 938.2
00 12.06 С 1 н/о н/о +23.2 +7.6 37 +24 +24 комфорт 1006.3 938.0
01 12.06 СЗ 1 н/о н/о +22.4 +7.9 39 +23 +23 комфорт 1006.5 938.0
02 12.06 Ю 1 н/о н/о +23.1 +7.8 37 +24 +24 комфорт 1006.3 938.0
03 12.06 СВ 3 н/о н/о +20.9 +9.5 48 +23 +23 комфорт 1006.5 937.7
04 12.06 В 3 н/о н/о +21.6 +8.3 42 +23 +23 комфорт 1006.3 937.7 0.0
05 12.06 В 3 н/о н/о +21.6 +10.1 48 +23 +23 комфорт 1006.1 937.5
06 12.06 В 5 н/о н/о +21.4 +11.6 54 +23 +23 комфорт 1006.0 937.4 +20.2 +26.2 0.0
07 12.06 В 4 н/о н/о +23.2 +12.8 52 +26 +26 жарко 1005.6 937.5
08 12.06 В 5 н/о н/о +25.9 +14.7 50 +28 +28 жарко 1004.8 937.4 0.0
09 12.06 В 4 н/о н/о +26.9 +14.7 47 +29 +29 жарко 1004.5 937.3 0.0
10 12.06 В 6 н/о н/о +27.2 +14.1 45 +29 +29 жарко 1004.2 937.1
11 12.06 В 5 н/о н/о +27.4 +14.2 44 +30 +30 жарко 1004.4 937.3
12 12.06 В 6 н/о н/о +28.7 +12.3 36 +30 +30 жарко 1003.8 937.0 0.0
13 12.06 ЮВ 4 н/о н/о +28.6 +11.9 36 +30 +30 жарко 1004.2 937.3
14 12.06 СЗ 3 н/о н/о +23.8 +17.5 68 +28 +28 душно 1005.9 938.0
15 12.06 СЗ 5 н/о н/о +20.2 +15.3 73 +23 +23 комфорт 1007.7 938.8
16 12.06 З 5
{13}
н/о н/о +18.7 +14.4 76 +19 +19 1008.6 939.3
17 12.06 З 3 н/о н/о +18.4 +14.6 79 +19 +19 1009.6 940.2
18 12.06 З 2
{13}
н/о н/о +17.7 +14.2 80 +18 +18 1010.3 940.7 +17.6 +30.0 0.0
19 12.06 З 2 н/о н/о +16.8 +13.7 82 +17 +17 1010.9 941.0
20 12.06 З 2 н/о н/о +15.8 +13.2 85 +16 +16 1012.1 941.9
21 12.06 З 2 н/о н/о +15.1 +12.6 85 +15 +15 1012.8 942.3
22 12.06 СЗ 2 н/о н/о +14.9 +11.9 82 +15 +15 1013.5 942.9
23 12.06 СЗ 1 н/о н/о +15.0 +11.9 82 +16 +16 1013.0 942.5
00 13.06 СЗ 2 н/о н/о +14.8 +11.8 82 +14 +14 1013.3 942.7
01 13.06 СЗ 1 н/о н/о +14.4 +12.1 86 +15 +15 1013.2 942.5
02 13.06 СЗ 1 н/о н/о +13.8 +11.9 88 +14 +14 1013.3 942.5
03 13.06 З 1 н/о н/о +13.6 +11.8 89 +14 +14 1013.6 942.7
04 13.06 З 2 н/о н/о +13.5 +11.4 87 +13 +13 1014.4 943.4
05 13.06 З 1 н/о н/о +13.9 +11.4 85 +14 +14 1014.6 943.7
06 13.06 З 1 н/о н/о +14.2 +11.4 83 +15 +15 1014.9 944.1 +13.4 +17.7 0.0
07 13.06 З 1 н/о н/о +16.1 +11.8 76 +17 +17 1014.5 944.1
08 13.06 СЗ 1 н/о н/о +17.1 +12.0 72 +18 +18 1014.2 944.1
09 13.06 штиль 0 н/о н/о +18.8 +12.8 68 +20 +20 1013.8 944.1
10 13.06 В 3 н/о н/о +19.6 +13.6 68 +21 +21 комфорт 1013.0 943.6 0.0
11 13.06 В 3 н/о н/о +19.9 +13.3 66 +22 +22 комфорт 1012.7 943.4
12 13.06 В 2 н/о н/о +21.2 +14.1 64 +24 +24 комфорт 1011.6 942.7 0.0
13 13.06 В 2 н/о н/о +22.5 +14.9 62 +26 +26 жарко 1010.9 942.3
14 13.06 СВ 3 н/о н/о +22.8 +14.1 58 +26 +26 жарко 1010.7 942.2
15 13.06 В 1 н/о н/о +23.4 +14.4 57 +27 +27 душно 1010.6 942.2
16 13.06 штиль 0 н/о н/о +25.1 +15.2 54 +28 +28 жарко 1010.0 942.1
17 13.06 СЗ 1 н/о н/о +23.9 +15.1 58 +27 +27 жарко 1010.4 942.2
18 13.06 СЗ 2 н/о н/о +22.4 +14.9 63 +26 +26 жарко 1011.3 942.7 +13.8 +25.1 0.0
19 13.06 СЗ 2 н/о н/о +21.5 +14.2 63 +24 +24 комфорт 1012.1 943.2
20 13.06 СЗ 3 н/о н/о +20.5 +14.0 66 +23 +23 комфорт 1013.5 944.3
21 13.06 СЗ 2 н/о н/о +20.4 +13.5 65 +23 +23 комфорт 1014.5 945.2
22 13.06 СЗ 1 н/о н/о +20.0 +13.2 65 +23 +23 комфорт 1015.4 945.9
23 13.06 З 1 н/о н/о +19.3 +13.4 69 +22 +22 комфорт 1015.9 946.2
00 14.06 З 1 н/о н/о +18.8 +12.6 67 +21 +21 комфорт 1016.2 946.4
01 14.06 З 2 н/о н/о +18.3 +12.2 68 +19 +19 1016.5 946.5
02 14.06 З 1 н/о н/о +18.3 +12.5 69 +20 +20 1016.7 946.7
03 14.06 СЗ 1 н/о н/о +18.4 +12.3 68 +20 +20 1017.0 947.0
04 14.06 СЗ 1 н/о н/о +19.6 +11.1 58 +22 +22 комфорт 1017.2 947.4
05 14.06 В 2 н/о н/о +19.3 +13.5 69 +21 +21 комфорт 1017.4 947.6
06 14.06 ЮВ 2 н/о н/о +20.3 +14.4 69 +23 +23 комфорт 1017.3 947.8 +17.9 +22.6
07 14.06 В 4 н/о н/о +20.6 +13.7 65 +23 +23 комфорт 1017.4 947.9
08 14.06 В 5 н/о н/о +22.3 +14.3 61 +26 +26 жарко 1016.6 947.6
09 14.06 В 5 н/о н/о +23.2 +15.9 64 +28 +28 душно 1016.3 947.5
10 14.06 В 5 н/о н/о +24.8 +16.7 61 +28 +28 жарко 1015.4 947.1
11 14.06 В 5 н/о н/о +25.6 +15.9 55 +29 +29 душно 1015.0 946.9
12 14.06 В 5 н/о н/о +26.5 +16.5 54 +30 +30 душно 1014.2 946.3
13 14.06 В 6 н/о н/о +26.9 +17.3 56 +31 +31 душно 1013.4 945.7
14 14.06 В 5 н/о н/о +27.6 +17.4 54 +32 +32 очень
душно
1012.4 944.9
15 14.06 В 5 н/о н/о +27.8 +18.4 57 +33 +33 очень
душно
1011.7 944.3
16 14.06 В 5 н/о н/о +27.7 +18.0 56 +32 +32 очень
душно
1011.1 943.7
17 14.06 В 5 н/о н/о +27.0 +18.2 59 +32 +32 очень
душно
1010.9 943.4
18 14.06 В 5 н/о н/о +25.9 +18.6 64 +31 +31 очень
душно
1010.9 943.2 +19.8 +28.0
19 14.06 В 5 н/о н/о +24.8 +17.8 65 +29 +29 душно 1011.0 943.0
20 14.06 В 6 н/о н/о +23.9 +16.9 65 +28 +28 душно 1010.9 942.7
21 14.06 В 4 н/о н/о +22.8 +17.1 70 +28 +28 душно 1010.7 942.3
22 14.06 В 2 н/о н/о +23.6 +16.4 64 +27 +27 жарко 1010.6 942.3
23 14.06 В 2 н/о н/о +23.8 +15.1 58 +27 +27 жарко 1010.3 942.1
00 15.06 Ю 1 н/о н/о +24.5 +12.0 46 +26 +26 жарко 1010.0 941.9
01 15.06 ЮЗ 1 н/о н/о +25.7 +10.0 37 +26 +26 жарко 1009.5 941.6
02 15.06 Ю 2 н/о н/о +26.7 +7.8 30 +27 +27 жарко 1009.0 941.3
03 15.06 Ю 2 н/о н/о +26.0 +7.9 32 +26 +26 жарко 1008.8 941.0
04 15.06 Ю 1 н/о н/о +25.1 +8.4 35 +26 +26 жарко 1009.0 941.0
05 15.06 Ю 3 н/о н/о +25.4 +8.3 34 +26 +26 жарко 1009.0 941.0
06 15.06 ЮЗ 2 н/о н/о +24.8 +8.6 36 +25 +25 комфорт 1009.7 941.6 +22.6 +26.9 0.0
07 15.06 Ю 2 н/о н/о +25.4 +9.0 35 +26 +26 жарко 1009.9 941.9
08 15.06 З 1 н/о н/о +26.0 +11.2 40 +27 +27 жарко 1009.4 941.6
09 15.06 ЮЗ 2 н/о н/о +28.2 +11.6 36 +29 +29 жарко 1009.4 942.1
10 15.06 СЗ 3 н/о н/о +25.1 +13.1 47 +27 +27 жарко 1010.6 942.6
11 15.06 СЗ 2 н/о н/о +26.1 +15.4 52 +29 +29 жарко 1010.4 942.7
12 15.06 СЗ 2 н/о н/о +26.8 +15.5 50 +30 +30 душно 1010.8 943.2
13 15.06 СЗ 2 н/о н/о +27.0 +15.1 48 +30 +30 душно 1010.6 943.0
14 15.06 СЗ 2 н/о н/о +27.2 +15.1 48 +30 +30 душно 1010.5 943.0
15 15.06 СЗ 2 н/о н/о +25.2 +15.6 55 +28 +28 жарко 1010.6 942.7
16 15.06 СЗ 2 н/о н/о +24.2 +14.3 54 +27 +27 жарко 1011.1 942.9
17 15.06 З 2 н/о ливневой дождь н/о +20.7 +15.6 73 +24 +24 комфорт 1013.3 944.2 0.4
18 15.06 З 1 н/о в посл. час осадки {ливн. осадки} н/о +19.9 +16.5 81 +24 +24 комфорт 1013.1 943.8 +19.1 +28.3 1
19 15.06 З 2 н/о н/о +18.8 +16.4 86 +21 +21 комфорт 1013.2 943.7 0.0
20 15.06 штиль 0 н/о в посл. час осадки н/о +18.5 +15.9 85 +19 +19 1013.4 943.8 0.1
21 15.06 ЮВ 1 н/о {осадки} н/о +18.3 +15.4 83 +20 +20 1013.1 943.4 0.1
22 15.06 СЗ 1 н/о н/о +18.4 +15.1 81 +20 +20 1013.5 943.8

 

Местоположение метеостанции Вольфсегг-ам-Хаусрукк (Австрия): широта 48.10 долгота 13.67 высота над уровнем моря 619 м.

В архиве по умолчанию представлена погода в Вольфсегг-ам-Хаусрукке за последнюю неделю. Архивные данные за месяц целиком и за предыдущие месяцы, начиная с января 2011 года, Вы можете получить, выбрав интересующий диапазон дат из раскрывающегося списка и нажав кнопку "Ввод!".


*Определитесь, кто Вы:
робот инопланетянин человек

Внимание! Время в таблицах - всемирное. Для получения местного времени необходимо прибавить поправку, которая равна 1 ч.

Смотрите также архив погоды в соседних городах и на ближайших метеорологических станциях:

Погода в Рид-им-Иннкрайсе (Австрия) (19 км)
Погода в Франкенмаркте (Австрия) (22 км)
Погода в Гмундене (Австрия) (24 км)
Погода в Вельс / Шлайсхайм (Австрия) (31 км)
Погода в Фойеркогеле (Австрия) (31 км)
Погода в Кремсмюнстере (Австрия) (35 км)
Погода в Мондзе (Австрия) (36 км)
Погода в Линце (Австрия) (41 км)
Погода в Санкт-Вольфганге (Австрия) (44 км)
Погода в Маттзе (Австрия) (44 км)

Пояснения к столбцам:

Ветер - указаны скорость ветра в м/с - средняя за 10 мин, порывы в срок и между сроками (в фигурных скобках) и направление, откуда дует ветер: С - северный, СВ - северо-восточный, В - восточный, ЮВ - юго-восточный, Ю - южный, ЮЗ - юго-западный, З - западный, СЗ - северо-западный.
Видимость - горизонтальная дальность видимости в метрах или километрах. При видимости от 1 до 10 км при отсутствии осадков обычно наблюдается дымка, при ухудшении видимости до 1 км и менее - туман. В сухую погоду видимость может ухудшаться дымом, пылью или мглою.
Явления - указаны атмосферные явления, наблюдавшиеся в срок или в последний час перед сроком; фигурными скобками обозначены явления, наблюдавшиеся между сроками (за 1-3 часа до срока); квадратными скобками обозначены град или гололедные отложения с указанием их диаметра в мм.
Облачность - указаны через наклонную черту общая и нижняя облачность в баллах и высота нижней границы облаков в метрах; квадратными скобками обозначены формы облаков: Ci - перистые, Cs - перисто-слоистые, Cc - перисто-кучевые, Ac - высококучевые, As - высокослоистые, Sc - слоисто-кучевые, Ns - слоисто-дождевые, Cu - кучевые, Cb - кучево-дождевые. Подробнее классификацию облаков см. в Атласе облаков (PDF).
T - Температура воздуха - температура, измеренная на высоте 2 м над землей.
Td - Температура точки росы - температура, при понижении до которой содержащийся в воздухе водяной пар достигнет насыщения.
f - Относительная влажность воздуха - влажноcть воздуха, измеренная на высоте 2 м над землей.
Te - Эффективная температура - температура, которую ощущает одетый по сезону человек в тени. Характеристика душности погоды. При расчете учитывается влияние влажности воздуха и скорости ветра на теплоощущения человека.
Tes - Эффективная температура на солнце - температура, которую ощущает человек, с поправкой на солнечный нагрев. Характеристика знойности погоды. Зависит от высоты солнца над горизонтом, облачности и скорости ветра. Ночью, в пасмурную погоду, а также при ветре 12 м/с и более поправка равна нулю.
P - Атмосферное давление - приведенное к уровню моря атмосферное давление.
Po - Атмосферное давление - измеренное на уровне метеостанции атмосферное давление.
Tmin - Минимальная температура - минимум температуры воздуха на высоте 2 м над землей.
Tmax - Максимальная температура - максимум температуры воздуха на высоте 2 м над землей.
R - Количество осадков - Количество выпавших осадков за период времени, мм. При наведении курсора мыши на число - период времени, за который выпало указанное количество осадков.
R24 - Количество осадков - Количество выпавших осадков за 24 часа, мм.
S - Снежный покров - Высота снежного покрова, см. При наведении курсора мыши на число - состояние снежного покрова и степень покрытия местности в баллах.